QPF
0.01 0.02 0.02 0.02 0.03 0.04 0.06 0.06 0.06 0.04 0.02 0.02 0.02 0.02 0.04 0.04 0.04 0.05 0.09 0.11 0.09 0.13 0.17 0.09 0.05 0.05 0.05 0.05 0.04 0.03 0.03 0.04 0.06 0.05 0.07 0.16 0.15 0.11 0.07 0.05 0.06 0.08 0.08 0.06 0.04 0.04 0.05 0.04 0.05
0.01 0.01 0.01 0.03 0.03 0.04 0.06 0.07 0.05 0.03 0.02 0.01 0.01 0.02 0.06 0.03 0.03 0.06 0.09 0.09 0.10 0.13 0.14 0.08 0.05 0.04 0.04 0.04 0.03 0.02 0.02 0.04 0.05 0.05 0.07 0.10 0.13 0.11 0.06 0.05 0.06 0.08 0.07 0.05 0.04 0.04 0.04 0.04 0.05
0.02 0.02 0.02 0.02 0.03 0.05 0.08 0.07 0.04 0.03 0.03 0.02 0.02 0.01 0.05 0.04 0.03 0.05 0.06 0.06 0.08 0.11 0.12 0.12 0.06 0.04 0.03 0.03 0.02 0.02 0.03 0.03 0.04 0.04 0.05 0.06 0.08 0.07 0.06 0.07 0.07 0.09 0.08 0.06 0.06 0.06 0.05 0.04 0.04
0.02 0.04 0.05 0.03 0.03 0.03 0.05 0.04 0.03 0.02 0.01 0.01 0.00 0.02 0.03 0.03 0.03 0.04 0.04 0.04 0.08 0.10 0.11 0.11 0.07 0.04 0.03 0.03 0.03 0.03 0.03 0.03 0.04 0.03 0.03 0.03 0.05 0.06 0.09 0.11 0.09 0.11 0.10 0.09 0.08 0.07 0.07 0.05 0.06
0.04 0.05 0.07 0.04 0.03 0.03 0.04 0.04 0.03 0.01 0.00 0.00 0.01 0.03 0.04 0.03 0.02 0.03 0.03 0.03 0.08 0.10 0.11 0.12 0.08 0.05 0.03 0.04 0.04 0.04 0.04 0.05 0.04 0.03 0.03 0.04 0.05 0.08 0.12 0.11 0.12 0.11 0.09 0.08 0.08 0.09 0.08 0.07 0.07
0.05 0.03 0.03 0.03 0.03 0.02 0.03 0.03 0.01 0.01 0.01 0.01 0.01 0.02 0.03 0.05 0.03 0.03 0.03 0.03 0.07 0.10 0.11 0.12 0.10 0.07 0.05 0.06 0.05 0.06 0.06 0.05 0.05 0.05 0.04 0.05 0.06 0.07 0.06 0.06 0.08 0.07 0.07 0.07 0.07 0.07 0.06 0.06 0.07
0.03 0.03 0.02 0.02 0.03 0.03 0.03 0.02 0.01 0.01 0.01 0.01 0.01 0.02 0.04 0.04 0.03 0.03 0.03 0.04 0.06 0.09 0.10 0.09 0.08 0.05 0.04 0.05 0.05 0.06 0.07 0.08 0.06 0.06 0.05 0.07 0.07 0.06 0.05 0.06 0.06 0.06 0.05 0.05 0.04 0.04 0.07 0.07 0.07
0.02 0.03 0.02 0.02 0.03 0.04 0.03 0.02 0.01 0.01 0.01 0.01 0.01 0.03 0.05 0.05 0.03 0.03 0.03 0.05 0.07 0.10 0.10 0.07 0.05 0.05 0.05 0.05 0.06 0.07 0.08 0.10 0.08 0.07 0.06 0.08 0.08 0.08 0.07 0.06 0.06 0.07 0.07 0.05 0.04 0.05 0.06 0.08 0.10
0.03 0.04 0.02 0.04 0.03 0.03 0.03 0.03 0.02 0.01 0.01 0.00 0.01 0.02 0.04 0.03 0.03 0.02 0.03 0.04 0.05 0.06 0.08 0.07 0.06 0.05 0.05 0.05 0.04 0.05 0.06 0.09 0.07 0.06 0.06 0.05 0.04 0.05 0.05 0.05 0.06 0.07 0.08 0.08 0.08 0.08 0.07 0.08 0.10
0.04 0.06 0.03 0.01 0.02 0.01 0.01 0.01 0.01 0.01 0.01 0.01 0.01 0.02 0.03 0.03 0.03 0.02 0.02 0.03 0.03 0.04 0.05 0.05 0.05 0.05 0.04 0.03 0.02 0.02 0.04 0.06 0.05 0.05 0.05 0.03 0.03 0.03 0.03 0.04 0.04 0.05 0.06 0.07 0.08 0.09 0.07 0.06 0.04
0.04 0.04 0.01 0.01 0.01 0.01 0.01 0.01 0.00 0.00 0.01 0.01 0.01 0.02 0.03 0.03 0.03 0.03 0.03 0.03 0.03 0.04 0.04 0.03 0.04 0.04 0.03 0.02 0.02 0.02 0.02 0.03 0.04 0.05 0.05 0.03 0.02 0.02 0.02 0.01 0.02 0.02 0.04 0.05 0.05 0.06 0.06 0.03 0.02
0.02 0.01 0.01 0.01 0.01 0.00 0.00 0.00 0.00 0.00 0.00 0.01 0.00 0.02 0.03 0.04 0.05 0.05 0.04 0.04 0.05 0.05 0.05 0.04 0.03 0.03 0.02 0.02 0.02 0.01 0.02 0.02 0.03 0.05 0.05 0.02 0.01 0.01 0.01 0.00 0.01 0.01 0.03 0.04 0.04 0.04 0.04 0.03 0.02
0.02 0.01 0.01 0.01 0.00 0.00 0.00 0.00 0.00 0.01 0.01 0.00 0.01 0.01 0.03 0.04 0.06 0.07 0.07 0.08 0.07 0.05 0.04 0.03 0.02 0.02 0.02 0.01 0.01 0.01 0.01 0.02 0.02 0.03 0.04 0.02 0.01 0.02 0.01 0.00 0.01 0.02 0.02 0.03 0.05 0.04 0.04 0.04 0.03
0.02 0.01 0.01 0.01 0.01 0.00 0.00 0.00 0.00 0.01 0.01 0.01 0.01 0.02 0.02 0.02 0.03 0.04 0.04 0.05 0.05 0.03 0.03 0.03 0.02 0.02 0.02 0.02 0.02 0.03 0.02 0.02 0.02 0.01 0.01 0.01 0.02 0.02 0.01 0.01 0.01 0.02 0.02 0.01 0.02 0.03 0.03 0.04 0.03
0.02 0.01 0.01 0.01 0.01 0.01 0.01 0.01 0.00 0.01 0.01 0.01 0.01 0.02 0.02 0.03 0.03 0.03 0.02 0.02 0.03 0.03 0.02 0.02 0.01 0.01 0.02 0.04 0.04 0.04 0.04 0.04 0.03 0.01 0.01 0.01 0.01 0.01 0.01 0.01 0.01 0.02 0.02 0.01 0.01 0.01 0.02 0.02 0.03
0.02 0.01 0.01 0.02 0.01 0.01 0.01 0.01 0.01 0.01 0.03 0.03 0.03 0.02 0.02 0.02 0.03 0.03 0.02 0.01 0.03 0.03 0.02 0.02 0.02 0.03 0.04 0.04 0.04 0.04 0.03 0.03 0.03 0.03 0.03 0.02 0.02 0.02 0.01 0.01 0.01 0.01 0.01 0.01 0.00 0.01 0.01 0.01 0.03
0.02 0.02 0.01 0.02 0.01 0.01 0.01 0.02 0.01 0.01 0.04 0.04 0.04 0.02 0.01 0.02 0.03 0.03 0.02 0.01 0.01 0.02 0.03 0.04 0.04 0.04 0.05 0.04 0.03 0.03 0.02 0.02 0.02 0.04 0.04 0.03 0.03 0.03 0.02 0.01 0.02 0.02 0.01 0.01 0.01 0.01 0.01 0.01 0.02
0.01 0.01 0.00 0.01 0.01 0.01 0.01 0.03 0.02 0.01 0.01 0.01 0.02 0.02 0.01 0.02 0.02 0.03 0.03 0.01 0.01 0.03 0.04 0.03 0.04 0.04 0.05 0.03 0.03 0.02 0.02 0.02 0.02 0.02 0.04 0.03 0.03 0.03 0.02 0.01 0.01 0.02 0.02 0.01 0.01 0.01 0.01 0.02 0.02
0.02 0.01 0.00 0.00 0.01 0.01 0.01 0.02 0.02 0.01 0.00 0.00 0.01 0.01 0.01 0.02 0.02 0.02 0.02 0.01 0.02 0.02 0.02 0.02 0.02 0.02 0.02 0.02 0.03 0.04 0.03 0.03 0.02 0.02 0.02 0.01 0.01 0.01 0.01 0.01 0.01 0.02 0.02 0.02 0.01 0.01 0.01 0.01 0.02
0.01 0.01 0.00 0.01 0.01 0.01 0.01 0.02 0.01 0.00 0.00 0.00 0.00 0.01 0.01 0.01 0.01 0.02 0.02 0.01 0.02 0.02 0.02 0.02 0.02 0.01 0.01 0.02 0.03 0.04 0.03 0.03 0.03 0.03 0.02 0.02 0.01 0.01 0.02 0.02 0.02 0.02 0.04 0.03 0.02 0.01 0.01 0.01 0.02
0.01 0.01 0.01 0.01 0.01 0.01 0.01 0.01 0.01 0.01 0.01 0.00 0.00 0.01 0.02 0.01 0.01 0.01 0.02 0.01 0.02 0.04 0.05 0.04 0.04 0.03 0.02 0.03 0.03 0.03 0.02 0.02 0.02 0.03 0.03 0.03 0.03 0.03 0.03 0.04 0.04 0.03 0.03 0.03 0.03 0.03 0.03 0.03 0.03
0.01 0.01 0.01 0.01 0.01 0.01 0.01 0.01 0.01 0.01 0.01 0.01 0.00 0.00 0.02 0.02 0.02 0.03 0.02 0.01 0.02 0.07 0.11 0.05 0.03 0.03 0.03 0.03 0.02 0.02 0.03 0.02 0.02 0.02 0.03 0.03 0.03 0.03 0.03 0.04 0.04 0.04 0.04 0.04 0.04 0.04 0.04 0.04 0.04
0.00 0.00 0.01 0.01 0.01 0.01 0.00 0.00 0.00 0.01 0.01 0.01 0.01 0.01 0.01 0.02 0.03 0.04 0.02 0.01 0.02 0.04 0.09 0.06 0.04 0.04 0.04 0.04 0.03 0.03 0.03 0.01 0.01 0.02 0.02 0.02 0.02 0.03 0.03 0.04 0.05 0.05 0.06 0.06 0.05 0.05 0.05 0.08 0.07
0.00 0.00 0.01 0.01 0.01 0.02 0.00 0.00 0.00 0.00 0.01 0.01 0.01 0.01 0.01 0.03 0.05 0.04 0.02 0.01 0.02 0.03 0.04 0.04 0.05 0.05 0.05 0.05 0.05 0.04 0.02 0.01 0.01 0.02 0.02 0.03 0.02 0.03 0.03 0.04 0.03 0.04 0.06 0.08 0.07 0.06 0.08 0.10 0.11
0.01 0.01 0.01 0.01 0.01 0.02 0.01 0.00 0.00 0.01 0.01 0.01 0.01 0.01 0.04 0.05 0.05 0.03 0.02 0.01 0.01 0.02 0.04 0.06 0.07 0.07 0.06 0.07 0.06 0.05 0.03 0.01 0.01 0.01 0.02 0.03 0.03 0.02 0.02 0.03 0.03 0.04 0.04 0.05 0.05 0.04 0.04 0.06 0.07
0.01 0.01 0.01 0.01 0.01 0.01 0.01 0.01 0.01 0.01 0.01 0.01 0.01 0.02 0.07 0.08 0.07 0.05 0.03 0.02 0.02 0.03 0.06 0.08 0.09 0.09 0.10 0.09 0.07 0.07 0.06 0.03 0.02 0.02 0.02 0.02 0.02 0.02 0.02 0.03 0.03 0.02 0.02 0.03 0.03 0.03 0.03 0.03 0.04
0.01 0.01 0.00 0.01 0.01 0.01 0.01 0.01 0.01 0.01 0.01 0.01 0.01 0.02 0.05 0.07 0.07 0.06 0.03 0.03 0.03 0.06 0.07 0.10 0.13 0.13 0.11 0.09 0.07 0.09 0.07 0.04 0.02 0.01 0.02 0.02 0.02 0.02 0.02 0.02 0.02 0.02 0.02 0.02 0.03 0.03 0.03 0.03 0.03
0.01 0.01 0.01 0.01 0.01 0.01 0.01 0.01 0.01 0.01 0.01 0.01 0.01 0.02 0.04 0.06 0.06 0.06 0.05 0.05 0.07 0.08 0.11 0.17 0.14 0.09 0.08 0.07 0.06 0.05 0.04 0.02 0.02 0.02 0.02 0.02 0.01 0.02 0.02 0.01 0.01 0.01 0.01 0.01 0.02 0.02 0.03 0.02 0.02
0.01 0.01 0.00 0.00 0.00 0.01 0.01 0.00 0.01 0.00 0.01 0.01 0.02 0.01 0.02 0.04 0.04 0.05 0.06 0.07 0.08 0.08 0.09 0.11 0.10 0.10 0.08 0.06 0.05 0.03 0.02 0.02 0.01 0.02 0.02 0.01 0.01 0.02 0.01 0.01 0.01 0.01 0.01 0.01 0.01 0.01 0.02 0.02 0.02
0.00 0.01 0.01 0.00 0.00 0.00 0.00 0.00 0.00 0.01 0.01 0.01 0.01 0.01 0.01 0.03 0.05 0.04 0.05 0.05 0.05 0.05 0.06 0.07 0.07 0.07 0.06 0.04 0.03 0.02 0.01 0.01 0.02 0.01 0.01 0.02 0.02 0.02 0.02 0.02 0.02 0.02 0.01 0.01 0.01 0.01 0.01 0.01 0.01
MSLP
1008.94 1009.60 1010.32 1010.94 1011.38 1011.54 1011.43 1011.08 1010.59 1010.10 1009.73 1009.55 1009.59 1009.82 1010.14 1010.43 1010.60 1010.57 1010.33 1009.94 1009.49 1009.11 1008.91 1008.96 1009.26 1009.76 1010.38 1011.00 1011.53 1011.92 1012.17 1012.32 1012.45 1012.63 1012.91 1013.30 1013.78 1014.30 1014.77 1015.14 1015.36 1015.45 1015.44 1015.37 1015.30 1015.28 1015.32 1015.40 1015.50
1009.11 1009.86 1010.59 1011.17 1011.51 1011.56 1011.33 1010.88 1010.33 1009.81 1009.44 1009.28 1009.35 1009.60 1009.92 1010.22 1010.38 1010.36 1010.14 1009.80 1009.44 1009.17 1009.08 1009.24 1009.64 1010.22 1010.89 1011.53 1012.08 1012.48 1012.73 1012.89 1013.01 1013.18 1013.44 1013.79 1014.22 1014.67 1015.07 1015.37 1015.54 1015.59 1015.55 1015.47 1015.40 1015.36 1015.37 1015.41 1015.47
1009.43 1010.22 1010.92 1011.43 1011.66 1011.59 1011.26 1010.74 1010.16 1009.65 1009.30 1009.17 1009.25 1009.50 1009.80 1010.07 1010.20 1010.17 1009.98 1009.70 1009.43 1009.28 1009.32 1009.59 1010.09 1010.73 1011.44 1012.10 1012.65 1013.04 1013.29 1013.44 1013.57 1013.72 1013.95 1014.26 1014.63 1014.99 1015.31 1015.53 1015.64 1015.65 1015.58 1015.49 1015.41 1015.36 1015.36 1015.38 1015.40
1009.86 1010.63 1011.27 1011.67 1011.78 1011.61 1011.21 1010.67 1010.10 1009.63 1009.33 1009.24 1009.34 1009.57 1009.84 1010.05 1010.15 1010.10 1009.93 1009.72 1009.56 1009.52 1009.68 1010.06 1010.63 1011.32 1012.03 1012.67 1013.20 1013.57 1013.81 1013.95 1014.07 1014.22 1014.43 1014.69 1014.99 1015.28 1015.51 1015.64 1015.69 1015.64 1015.56 1015.46 1015.38 1015.33 1015.33 1015.34 1015.34
1010.33 1011.03 1011.55 1011.82 1011.82 1011.57 1011.14 1010.62 1010.12 1009.74 1009.53 1009.50 1009.62 1009.84 1010.06 1010.23 1010.28 1010.22 1010.08 1009.94 1009.87 1009.95 1010.22 1010.67 1011.28 1011.96 1012.64 1013.23 1013.70 1014.03 1014.24 1014.38 1014.50 1014.64 1014.84 1015.07 1015.31 1015.52 1015.67 1015.73 1015.70 1015.61 1015.50 1015.40 1015.33 1015.30 1015.30 1015.32 1015.33
1010.73 1011.31 1011.69 1011.83 1011.73 1011.43 1011.02 1010.58 1010.21 1009.96 1009.87 1009.92 1010.09 1010.30 1010.49 1010.60 1010.62 1010.55 1010.44 1010.37 1010.39 1010.56 1010.91 1011.40 1012.01 1012.65 1013.25 1013.76 1014.14 1014.40 1014.57 1014.70 1014.83 1014.99 1015.18 1015.39 1015.59 1015.74 1015.82 1015.80 1015.72 1015.59 1015.45 1015.34 1015.29 1015.28 1015.30 1015.34 1015.36
1010.99 1011.42 1011.64 1011.65 1011.47 1011.17 1010.83 1010.52 1010.30 1010.23 1010.29 1010.46 1010.68 1010.90 1011.07 1011.15 1011.14 1011.07 1011.00 1010.98 1011.08 1011.33 1011.71 1012.22 1012.78 1013.34 1013.84 1014.23 1014.51 1014.70 1014.83 1014.95 1015.09 1015.26 1015.47 1015.68 1015.85 1015.96 1015.97 1015.90 1015.75 1015.58 1015.42 1015.32 1015.27 1015.28 1015.34 1015.41 1015.46
1011.07 1011.35 1011.42 1011.31 1011.08 1010.81 1010.57 1010.41 1010.39 1010.51 1010.73 1011.02 1011.32 1011.56 1011.72 1011.78 1011.76 1011.70 1011.67 1011.71 1011.87 1012.16 1012.57 1013.05 1013.54 1014.00 1014.37 1014.64 1014.82 1014.94 1015.03 1015.14 1015.30 1015.50 1015.73 1015.95 1016.11 1016.18 1016.15 1016.02 1015.83 1015.62 1015.44 1015.33 1015.30 1015.34 1015.43 1015.53 1015.62
1011.01 1011.13 1011.07 1010.87 1010.63 1010.41 1010.28 1010.29 1010.46 1010.76 1011.14 1011.55 1011.91 1012.18 1012.34 1012.40 1012.39 1012.36 1012.36 1012.46 1012.67 1012.98 1013.39 1013.83 1014.25 1014.60 1014.85 1015.01 1015.10 1015.15 1015.22 1015.33 1015.51 1015.74 1015.99 1016.21 1016.36 1016.41 1016.34 1016.17 1015.94 1015.71 1015.52 1015.41 1015.39 1015.46 1015.58 1015.73 1015.86
1010.87 1010.87 1010.70 1010.45 1010.21 1010.05 1010.04 1010.20 1010.53 1010.98 1011.49 1011.98 1012.39 1012.69 1012.87 1012.94 1012.94 1012.94 1013.00 1013.14 1013.38 1013.72 1014.11 1014.50 1014.85 1015.10 1015.26 1015.33 1015.35 1015.37 1015.42 1015.53 1015.73 1015.98 1016.24 1016.47 1016.61 1016.64 1016.55 1016.36 1016.11 1015.87 1015.68 1015.58 1015.58 1015.67 1015.82 1016.00 1016.18
1010.73 1010.65 1010.42 1010.14 1009.92 1009.83 1009.91 1010.19 1010.63 1011.18 1011.76 1012.29 1012.73 1013.05 1013.23 1013.32 1013.36 1013.40 1013.50 1013.69 1013.96 1014.31 1014.68 1015.03 1015.32 1015.51 1015.61 1015.63 1015.61 1015.60 1015.65 1015.77 1015.98 1016.23 1016.49 1016.71 1016.84 1016.86 1016.76 1016.57 1016.33 1016.10 1015.93 1015.84 1015.87 1015.98 1016.17 1016.38 1016.59
1010.69 1010.56 1010.31 1010.04 1009.85 1009.81 1009.96 1010.30 1010.79 1011.37 1011.96 1012.49 1012.92 1013.23 1013.42 1013.53 1013.61 1013.70 1013.85 1014.08 1014.38 1014.72 1015.08 1015.41 1015.65 1015.81 1015.88 1015.88 1015.86 1015.86 1015.91 1016.03 1016.23 1016.47 1016.71 1016.91 1017.03 1017.04 1016.95 1016.78 1016.58 1016.39 1016.26 1016.21 1016.27 1016.41 1016.62 1016.86 1017.09
1010.77 1010.63 1010.40 1010.16 1010.02 1010.02 1010.20 1010.55 1011.03 1011.57 1012.11 1012.59 1012.98 1013.26 1013.46 1013.59 1013.70 1013.84 1014.04 1014.30 1014.62 1014.96 1015.31 1015.62 1015.85 1016.01 1016.08 1016.10 1016.10 1016.12 1016.18 1016.29 1016.46 1016.67 1016.87 1017.04 1017.14 1017.15 1017.09 1016.97 1016.83 1016.72 1016.65 1016.67 1016.77 1016.94 1017.17 1017.42 1017.66
1010.96 1010.86 1010.66 1010.48 1010.39 1010.43 1010.61 1010.93 1011.35 1011.80 1012.24 1012.64 1012.95 1013.19 1013.38 1013.53 1013.68 1013.87 1014.10 1014.38 1014.71 1015.05 1015.38 1015.68 1015.92 1016.10 1016.21 1016.27 1016.31 1016.36 1016.43 1016.53 1016.66 1016.80 1016.95 1017.07 1017.15 1017.18 1017.16 1017.12 1017.08 1017.06 1017.09 1017.18 1017.33 1017.54 1017.78 1018.03 1018.27
1011.20 1011.14 1011.02 1010.91 1010.88 1010.96 1011.14 1011.40 1011.73 1012.06 1012.38 1012.65 1012.88 1013.07 1013.24 1013.41 1013.59 1013.81 1014.08 1014.37 1014.69 1015.02 1015.34 1015.63 1015.88 1016.09 1016.25 1016.38 1016.48 1016.56 1016.63 1016.71 1016.79 1016.86 1016.94 1017.01 1017.06 1017.11 1017.15 1017.20 1017.27 1017.36 1017.50 1017.67 1017.89 1018.13 1018.38 1018.63 1018.87
1011.37 1011.38 1011.35 1011.34 1011.40 1011.52 1011.70 1011.91 1012.13 1012.34 1012.52 1012.67 1012.80 1012.93 1013.09 1013.26 1013.48 1013.73 1014.01 1014.30 1014.60 1014.91 1015.20 1015.48 1015.75 1016.00 1016.22 1016.42 1016.58 1016.70 1016.78 1016.83 1016.85 1016.85 1016.85 1016.86 1016.89 1016.95 1017.05 1017.20 1017.38 1017.60 1017.84 1018.11 1018.38 1018.65 1018.92 1019.16 1019.39
1011.42 1011.50 1011.58 1011.70 1011.86 1012.05 1012.24 1012.41 1012.54 1012.62 1012.66 1012.69 1012.73 1012.81 1012.94 1013.13 1013.37 1013.63 1013.92 1014.20 1014.47 1014.73 1015.00 1015.26 1015.54 1015.83 1016.12 1016.39 1016.61 1016.78 1016.87 1016.89 1016.86 1016.78 1016.70 1016.65 1016.66 1016.73 1016.89 1017.12 1017.41 1017.73 1018.08 1018.42 1018.74 1019.04 1019.31 1019.56 1019.78
1011.28 1011.45 1011.67 1011.93 1012.23 1012.51 1012.74 1012.88 1012.93 1012.89 1012.80 1012.71 1012.66 1012.68 1012.79 1012.99 1013.24 1013.52 1013.80 1014.06 1014.30 1014.52 1014.74 1014.99 1015.28 1015.60 1015.94 1016.28 1016.57 1016.78 1016.90 1016.91 1016.82 1016.69 1016.54 1016.43 1016.40 1016.48 1016.67 1016.97 1017.34 1017.75 1018.17 1018.58 1018.94 1019.26 1019.53 1019.78 1020.00
1011.00 1011.27 1011.64 1012.07 1012.51 1012.90 1013.18 1013.31 1013.28 1013.13 1012.92 1012.71 1012.57 1012.53 1012.61 1012.81 1013.07 1013.36 1013.64 1013.89 1014.09 1014.26 1014.45 1014.67 1014.95 1015.30 1015.69 1016.10 1016.45 1016.72 1016.86 1016.87 1016.76 1016.58 1016.38 1016.22 1016.16 1016.23 1016.44 1016.77 1017.19 1017.65 1018.12 1018.56 1018.94 1019.27 1019.55 1019.81 1020.04
1010.62 1011.03 1011.56 1012.17 1012.77 1013.27 1013.59 1013.70 1013.60 1013.34 1012.99 1012.66 1012.41 1012.30 1012.35 1012.54 1012.81 1013.12 1013.41 1013.64 1013.81 1013.96 1014.10 1014.30 1014.58 1014.94 1015.38 1015.83 1016.25 1016.58 1016.76 1016.79 1016.68 1016.48 1016.24 1016.05 1015.96 1016.00 1016.20 1016.54 1016.97 1017.45 1017.93 1018.38 1018.77 1019.10 1019.38 1019.64 1019.90
1010.28 1010.83 1011.54 1012.33 1013.08 1013.67 1014.02 1014.09 1013.89 1013.48 1012.98 1012.50 1012.14 1011.95 1011.95 1012.13 1012.42 1012.75 1013.06 1013.30 1013.47 1013.59 1013.71 1013.89 1014.15 1014.53 1014.99 1015.49 1015.96 1016.35 1016.58 1016.65 1016.56 1016.36 1016.12 1015.91 1015.79 1015.80 1015.97 1016.28 1016.70 1017.16 1017.62 1018.05 1018.43 1018.75 1019.04 1019.31 1019.60
1010.06 1010.78 1011.67 1012.62 1013.49 1014.13 1014.47 1014.46 1014.12 1013.55 1012.86 1012.21 1011.71 1011.42 1011.38 1011.55 1011.86 1012.23 1012.57 1012.85 1013.03 1013.16 1013.27 1013.43 1013.68 1014.06 1014.53 1015.06 1015.57 1016.01 1016.31 1016.43 1016.39 1016.22 1015.99 1015.77 1015.63 1015.62 1015.75 1016.02 1016.39 1016.80 1017.22 1017.62 1017.97 1018.28 1018.56 1018.84 1019.15
1010.03 1010.93 1011.99 1013.07 1014.01 1014.67 1014.94 1014.79 1014.28 1013.49 1012.61 1011.77 1011.11 1010.72 1010.63 1010.79 1011.13 1011.55 1011.96 1012.29 1012.51 1012.66 1012.78 1012.93 1013.17 1013.53 1014.00 1014.54 1015.09 1015.57 1015.92 1016.11 1016.13 1016.01 1015.81 1015.61 1015.47 1015.43 1015.52 1015.74 1016.04 1016.40 1016.77 1017.11 1017.42 1017.71 1017.98 1018.27 1018.59
1010.20 1011.26 1012.47 1013.64 1014.60 1015.21 1015.36 1015.05 1014.32 1013.30 1012.19 1011.16 1010.35 1009.86 1009.72 1009.88 1010.26 1010.75 1011.23 1011.64 1011.92 1012.11 1012.25 1012.39 1012.62 1012.96 1013.41 1013.94 1014.50 1015.01 1015.42 1015.67 1015.75 1015.70 1015.56 1015.40 1015.26 1015.21 1015.27 1015.43 1015.67 1015.96 1016.26 1016.55 1016.83 1017.08 1017.34 1017.62 1017.95
1010.51 1011.72 1013.02 1014.23 1015.17 1015.67 1015.67 1015.15 1014.19 1012.94 1011.62 1010.40 1009.46 1008.88 1008.70 1008.88 1009.31 1009.87 1010.44 1010.92 1011.28 1011.52 1011.68 1011.83 1012.04 1012.34 1012.76 1013.27 1013.83 1014.36 1014.80 1015.11 1015.26 1015.28 1015.21 1015.09 1014.98 1014.93 1014.96 1015.07 1015.26 1015.48 1015.72 1015.96 1016.19 1016.41 1016.65 1016.91 1017.23
1010.85 1012.17 1013.53 1014.73 1015.58 1015.95 1015.76 1015.03 1013.86 1012.41 1010.90 1009.54 1008.49 1007.85 1007.66 1007.85 1008.33 1008.96 1009.61 1010.17 1010.60 1010.89 1011.08 1011.23 1011.42 1011.69 1012.07 1012.55 1013.08 1013.62 1014.08 1014.44 1014.66 1014.75 1014.74 1014.68 1014.60 1014.56 1014.57 1014.66 1014.79 1014.97 1015.16 1015.34 1015.53 1015.72 1015.92 1016.16 1016.45
1011.13 1012.52 1013.87 1015.00 1015.73 1015.94 1015.57 1014.65 1013.30 1011.70 1010.07 1008.62 1007.52 1006.86 1006.66 1006.88 1007.40 1008.08 1008.79 1009.42 1009.90 1010.23 1010.45 1010.60 1010.77 1011.01 1011.36 1011.79 1012.30 1012.82 1013.30 1013.69 1013.96 1014.12 1014.17 1014.16 1014.12 1014.10 1014.11 1014.17 1014.27 1014.40 1014.55 1014.70 1014.85 1015.00 1015.18 1015.38 1015.64
1011.27 1012.65 1013.94 1014.96 1015.54 1015.58 1015.04 1013.98 1012.52 1010.84 1009.17 1007.70 1006.60 1005.96 1005.78 1006.01 1006.56 1007.27 1008.00 1008.66 1009.18 1009.53 1009.76 1009.93 1010.09 1010.31 1010.62 1011.02 1011.50 1012.00 1012.48 1012.89 1013.20 1013.40 1013.51 1013.54 1013.54 1013.54 1013.56 1013.61 1013.69 1013.80 1013.91 1014.03 1014.15 1014.28 1014.42 1014.59 1014.80
1011.21 1012.52 1013.69 1014.55 1014.96 1014.85 1014.19 1013.04 1011.55 1009.88 1008.26 1006.85 1005.81 1005.21 1005.06 1005.31 1005.84 1006.54 1007.26 1007.91 1008.42 1008.78 1009.03 1009.20 1009.36 1009.57 1009.86 1010.24 1010.69 1011.18 1011.65 1012.07 1012.40 1012.63 1012.77 1012.85 1012.88 1012.90 1012.93 1012.98 1013.05 1013.14 1013.24 1013.34 1013.43 1013.54 1013.65 1013.78 1013.95
1010.96 1012.14 1013.13 1013.81 1014.04 1013.79 1013.05 1011.89 1010.44 1008.87 1007.37 1006.09 1005.15 1004.62 1004.51 1004.75 1005.25 1005.89 1006.55 1007.15 1007.63 1007.98 1008.22 1008.41 1008.58 1008.81 1009.10 1009.48 1009.92 1010.38 1010.84 1011.25 1011.59 1011.84 1012.01 1012.11 1012.17 1012.21 1012.25 1012.31 1012.38 1012.46 1012.55 1012.63 1012.71 1012.80 1012.88 1012.99 1013.12
Thickness
5811 5810 5807 5797 5779 5762 5759 5772 5782 5784 5787 5795 5799 5794 5786 5781 5776 5773 5796 5805 5805 5804 5805 5804 5803 5802 5800 5799 5798 5797 5796 5795 5794 5793 5793 5792 5791 5789 5788 5787 5785 5783 5782 5780 5779 5778 5776 5775 5774
5814 5810 5802 5788 5767 5750 5759 5777 5781 5787 5795 5801 5800 5796 5789 5786 5793 5794 5799 5804 5805 5804 5804 5803 5802 5801 5799 5798 5797 5796 5795 5794 5793 5792 5792 5791 5790 5788 5787 5786 5784 5783 5781 5780 5779 5777 5776 5775 5773
5814 5811 5794 5779 5765 5756 5765 5782 5787 5796 5804 5802 5796 5796 5791 5788 5795 5797 5803 5806 5805 5803 5803 5802 5801 5800 5798 5797 5796 5795 5794 5793 5792 5791 5791 5790 5789 5787 5786 5785 5784 5782 5781 5779 5778 5777 5775 5774 5773
5812 5801 5791 5775 5768 5776 5782 5790 5796 5797 5802 5804 5798 5790 5795 5802 5802 5804 5807 5806 5803 5802 5802 5801 5799 5798 5797 5796 5794 5794 5793 5792 5791 5790 5790 5789 5788 5787 5786 5785 5783 5782 5780 5778 5777 5775 5774 5773 5772
5811 5794 5778 5768 5774 5786 5795 5801 5802 5797 5796 5799 5797 5787 5789 5802 5808 5807 5806 5805 5802 5801 5801 5800 5798 5797 5796 5794 5793 5792 5791 5791 5790 5789 5789 5788 5787 5786 5785 5784 5783 5781 5780 5778 5777 5775 5774 5773 5772
5799 5790 5769 5763 5775 5791 5800 5806 5804 5799 5797 5799 5796 5788 5789 5802 5804 5804 5805 5804 5802 5800 5800 5799 5797 5796 5794 5793 5791 5790 5790 5789 5788 5788 5787 5786 5785 5784 5783 5783 5782 5781 5779 5778 5776 5775 5774 5773 5771
5794 5783 5773 5773 5776 5786 5801 5810 5804 5799 5797 5799 5801 5787 5790 5799 5804 5805 5804 5803 5801 5799 5798 5796 5795 5794 5793 5792 5790 5789 5789 5788 5787 5786 5785 5784 5784 5783 5782 5781 5780 5779 5778 5777 5776 5775 5774 5772 5771
5804 5787 5778 5777 5779 5787 5805 5810 5810 5805 5802 5811 5808 5790 5789 5799 5805 5804 5802 5800 5798 5797 5796 5795 5794 5793 5792 5791 5790 5788 5787 5787 5786 5784 5783 5783 5782 5781 5780 5780 5779 5778 5778 5777 5776 5774 5774 5772 5771
5809 5782 5773 5781 5786 5794 5808 5806 5810 5817 5811 5810 5811 5806 5806 5807 5805 5800 5796 5794 5793 5794 5794 5794 5793 5791 5790 5789 5788 5787 5786 5785 5784 5783 5782 5781 5780 5779 5779 5778 5778 5777 5777 5776 5775 5774 5774 5772 5771
5799 5778 5787 5803 5805 5805 5810 5809 5810 5808 5803 5802 5805 5808 5810 5807 5802 5796 5793 5790 5790 5791 5793 5793 5792 5790 5789 5788 5787 5786 5785 5784 5783 5781 5781 5780 5779 5778 5777 5777 5776 5776 5776 5775 5774 5773 5773 5771 5770
5801 5793 5805 5814 5818 5817 5811 5812 5816 5805 5797 5803 5803 5804 5805 5803 5799 5796 5794 5793 5792 5793 5792 5792 5791 5790 5789 5787 5786 5785 5784 5783 5782 5781 5780 5779 5778 5777 5776 5775 5775 5775 5774 5774 5773 5772 5771 5770 5769
5804 5810 5815 5818 5824 5819 5815 5815 5812 5809 5810 5819 5817 5813 5807 5802 5799 5797 5795 5795 5794 5792 5792 5793 5792 5790 5788 5787 5785 5784 5783 5781 5780 5779 5778 5777 5776 5775 5774 5774 5773 5773 5772 5772 5772 5771 5770 5768 5767
5807 5813 5821 5824 5825 5823 5820 5815 5813 5813 5820 5822 5818 5812 5806 5803 5801 5800 5799 5797 5795 5793 5792 5793 5792 5790 5789 5786 5785 5783 5781 5780 5779 5778 5777 5776 5775 5774 5773 5772 5772 5771 5771 5770 5770 5769 5768 5767 5766
5814 5817 5819 5822 5823 5824 5817 5814 5813 5813 5820 5817 5813 5808 5807 5805 5803 5801 5799 5797 5796 5795 5794 5793 5792 5791 5789 5786 5784 5782 5780 5779 5778 5777 5776 5775 5774 5773 5772 5771 5770 5770 5769 5769 5768 5767 5766 5765 5764
5819 5811 5812 5817 5820 5819 5816 5803 5807 5817 5818 5813 5810 5809 5807 5806 5805 5803 5802 5801 5799 5797 5795 5794 5793 5791 5788 5786 5784 5781 5779 5778 5777 5776 5775 5775 5774 5772 5771 5770 5769 5769 5768 5767 5767 5766 5765 5763 5762
5810 5798 5791 5809 5817 5818 5808 5789 5810 5818 5814 5808 5809 5808 5807 5806 5807 5806 5805 5803 5801 5799 5796 5796 5795 5791 5788 5786 5784 5781 5779 5778 5777 5776 5775 5774 5774 5772 5771 5769 5768 5768 5767 5766 5764 5763 5762 5760 5759
5788 5780 5784 5798 5815 5814 5804 5793 5810 5817 5812 5807 5808 5808 5806 5805 5805 5806 5807 5805 5803 5800 5798 5795 5794 5791 5788 5785 5783 5781 5779 5777 5776 5775 5774 5774 5773 5772 5770 5768 5767 5766 5765 5763 5763 5761 5759 5757 5756
5778 5781 5784 5789 5807 5808 5799 5798 5809 5814 5812 5808 5808 5807 5806 5805 5807 5809 5808 5807 5805 5802 5799 5795 5793 5790 5787 5784 5781 5779 5777 5776 5775 5775 5774 5774 5773 5772 5770 5768 5766 5764 5763 5761 5760 5758 5757 5755 5754
5794 5788 5784 5794 5809 5802 5796 5797 5805 5810 5810 5807 5805 5805 5806 5807 5810 5810 5809 5807 5804 5801 5798 5795 5792 5790 5786 5782 5779 5776 5774 5774 5774 5774 5774 5773 5772 5771 5769 5767 5764 5763 5761 5759 5758 5756 5754 5752 5751
5794 5785 5784 5794 5807 5802 5794 5795 5806 5810 5810 5810 5809 5808 5808 5807 5807 5807 5807 5806 5803 5800 5798 5796 5793 5790 5787 5784 5781 5778 5776 5774 5774 5774 5773 5772 5771 5770 5768 5765 5763 5761 5759 5757 5755 5754 5751 5749 5748
5789 5785 5786 5787 5797 5800 5793 5788 5797 5807 5811 5811 5812 5812 5811 5809 5806 5806 5805 5804 5803 5800 5798 5796 5793 5791 5788 5785 5781 5778 5774 5772 5771 5770 5770 5771 5770 5768 5767 5765 5762 5760 5758 5755 5754 5752 5749 5745 5744
5782 5799 5798 5792 5779 5769 5781 5761 5787 5797 5801 5806 5809 5809 5810 5811 5810 5808 5806 5804 5803 5801 5799 5796 5793 5789 5787 5785 5780 5776 5771 5768 5768 5768 5768 5768 5768 5767 5765 5763 5761 5758 5756 5754 5752 5750 5747 5744 5740
5794 5803 5796 5789 5776 5766 5770 5761 5775 5791 5792 5802 5808 5810 5812 5812 5812 5809 5808 5806 5804 5802 5799 5796 5792 5788 5786 5783 5779 5775 5773 5770 5769 5768 5767 5766 5766 5765 5763 5761 5759 5757 5755 5752 5750 5748 5746 5743 5740
5804 5793 5783 5771 5762 5749 5762 5757 5765 5782 5795 5804 5810 5812 5813 5813 5812 5810 5809 5806 5803 5801 5798 5794 5790 5787 5784 5780 5777 5774 5771 5769 5767 5765 5764 5763 5762 5762 5761 5759 5757 5755 5753 5750 5748 5746 5744 5741 5739
5794 5769 5747 5744 5736 5741 5762 5759 5768 5799 5808 5811 5811 5813 5815 5814 5811 5808 5805 5802 5799 5797 5795 5792 5788 5783 5781 5779 5776 5773 5770 5768 5767 5765 5762 5760 5759 5759 5758 5757 5755 5753 5751 5749 5746 5744 5742 5740 5737
5783 5772 5745 5734 5731 5740 5756 5754 5781 5808 5814 5817 5817 5816 5815 5813 5811 5808 5806 5803 5800 5797 5795 5790 5786 5782 5780 5777 5775 5773 5770 5768 5766 5765 5762 5760 5758 5758 5757 5755 5753 5751 5749 5747 5744 5742 5739 5738 5736
5779 5769 5770 5747 5742 5736 5745 5763 5787 5806 5809 5812 5812 5811 5810 5811 5810 5807 5806 5803 5800 5797 5795 5791 5786 5782 5780 5777 5774 5771 5769 5766 5765 5763 5761 5759 5758 5757 5755 5753 5751 5749 5747 5744 5742 5739 5736 5735 5732
5790 5774 5753 5741 5728 5726 5742 5753 5767 5790 5796 5803 5805 5805 5807 5808 5808 5806 5804 5802 5799 5797 5793 5790 5786 5783 5780 5777 5774 5772 5768 5766 5764 5762 5759 5757 5756 5755 5753 5751 5748 5746 5744 5741 5739 5736 5733 5731 5729
5775 5767 5753 5738 5738 5726 5726 5750 5791 5793 5798 5799 5803 5805 5805 5806 5806 5805 5804 5801 5798 5795 5792 5789 5785 5781 5778 5775 5772 5769 5767 5765 5763 5760 5757 5755 5754 5752 5750 5747 5744 5742 5740 5738 5735 5733 5730 5728 5725
5784 5772 5756 5744 5736 5730 5729 5752 5801 5800 5801 5801 5801 5804 5806 5805 5806 5805 5802 5799 5795 5792 5790 5787 5784 5780 5777 5774 5770 5767 5765 5762 5760 5757 5756 5754 5751 5749 5747 5744 5741 5739 5737 5735 5732 5729 5727 5724 5721